Nome, AK

7:57 PM AKST on February 07, 2016 (GMT -0900)
Golovin

Weather History for PAGL - October, 2013

Change the Weather History Date:

Sunday, October 13, 2013

  Actual Average Record
Temperature  
Mean Temperature 42 °F -  
Max Temperature 44 °F - - ()
Min Temperature 39 °F - - ()
Degree Days  
Heating Degree Days 24    
Moisture  
Dew Point 39 °F    
Average Humidity 88    
Maximum Humidity 93    
Minimum Humidity 81    
Precipitation  
Precipitation 0.01 in - - ()
Sea Level Pressure  
Sea Level Pressure 29.37 in    
Wind  
Wind Speed 10 mph (ESE)    
Max Wind Speed 15 mph    
Max Gust Speed 21 mph    
Visibility 10 miles    
Events      
T = Trace of Precipitation, MM = Missing Value Source: NWS Daily Summary

Daily Weather History Graph

Daily Weather History Graph

Search for Another Location

Airport or City:

Trip Planner

Search our weather history database for the weather conditions in past years. The results will help you decide how hot, cold, wet, or windy it might be!

Date:

Astronomy

Oct. 13, 2013 Rise Set
Actual Time 9:39 AM AKDT 7:36 PM AKDT
Civil Twilight 8:49 AM AKDT 8:25 PM AKDT
Nautical Twilight 7:53 AM AKDT 9:21 PM AKDT
Astronomical Twilight 6:56 AM AKDT 10:18 PM AKDT
Moon 6:10 PM AKDT (10/13) 2:10 AM AKDT (10/13)
Length of Visible Light 11h 35m
Length of Day
9h 56m
Waxing Gibbous, 71% of the Moon is Illuminated
Oct 13
Waxing Gibbous
Oct 18
Full
Oct 26
Last Quarter
Nov 3
New
Nov 9
First Quarter

Hourly Weather History & Observations

Time (AKDT) Temp. Windchill Dew Point Humidity Pressure Visibility Wind Dir Wind Speed Gust Speed Precip Events Conditions
12:16 AM 42.8 °F 35.4 °F 39.2 °F 87% - 10.0 mi ENE 15.0 mph - N/A   Overcast
12:36 AM 42.8 °F 35.8 °F 39.2 °F 87% - 10.0 mi ENE 13.8 mph - N/A   Overcast
12:56 AM 42.8 °F 35.8 °F 39.2 °F 87% - 10.0 mi ENE 13.8 mph - N/A   Overcast
1:16 AM 42.8 °F 35.8 °F 39.2 °F 87% - 10.0 mi East 13.8 mph 18.4 mph N/A   Overcast
1:36 AM 42.8 °F 37.0 °F 39.2 °F 87% - 10.0 mi East 10.4 mph 19.6 mph N/A   Overcast
1:56 AM 42.8 °F 37.0 °F 39.2 °F 87% - 10.0 mi ENE 10.4 mph - 0.01 in   Overcast
2:16 AM 42.8 °F 37.0 °F 39.2 °F 87% - 10.0 mi ENE 10.4 mph - N/A   Overcast
2:36 AM 42.8 °F 36.6 °F 39.2 °F 87% - 10.0 mi East 11.5 mph - N/A   Overcast
2:56 AM 42.8 °F 37.0 °F 39.2 °F 87% - 10.0 mi ENE 10.4 mph - N/A   Overcast
3:16 AM 42.8 °F 36.6 °F 39.2 °F 87% - 10.0 mi ENE 11.5 mph 16.1 mph N/A   Overcast
3:36 AM 42.8 °F 37.0 °F 39.2 °F 87% - 10.0 mi East 10.4 mph - N/A   Overcast
3:56 AM 42.8 °F 35.8 °F 39.2 °F 87% - 10.0 mi ENE 13.8 mph - N/A   Overcast
4:16 AM 42.8 °F 36.2 °F 39.2 °F 87% - 10.0 mi ENE 12.7 mph - N/A   Overcast
4:36 AM 42.8 °F 35.8 °F 39.2 °F 87% - 10.0 mi ENE 13.8 mph - N/A   Overcast
4:56 AM 44.6 °F 39.2 °F 39.2 °F 81% - 10.0 mi East 10.4 mph - N/A   Overcast
5:16 AM 42.8 °F 36.2 °F 39.2 °F 87% - 10.0 mi East 12.7 mph - N/A   Overcast
5:36 AM 42.8 °F 36.2 °F 37.4 °F 81% - 10.0 mi East 12.7 mph - N/A   Overcast
5:56 AM 42.8 °F 36.6 °F 37.4 °F 81% - 10.0 mi East 11.5 mph - N/A   Mostly Cloudy
6:16 AM 42.8 °F 36.2 °F 39.2 °F 87% - 10.0 mi East 12.7 mph - N/A   Overcast
6:36 AM 42.8 °F 37.5 °F 39.2 °F 87% - 10.0 mi East 9.2 mph - N/A   Mostly Cloudy
6:56 AM 42.8 °F 36.6 °F 37.4 °F 81% - 10.0 mi ENE 11.5 mph - N/A   Overcast
7:16 AM 42.8 °F 36.6 °F 39.2 °F 87% - 10.0 mi East 11.5 mph - N/A   Mostly Cloudy
7:36 AM 42.8 °F 35.8 °F 39.2 °F 87% - 10.0 mi East 13.8 mph 20.7 mph N/A   Mostly Cloudy
7:56 AM 42.8 °F 35.4 °F 39.2 °F 87% - 10.0 mi East 15.0 mph - N/A   Overcast
8:16 AM 42.8 °F 37.0 °F 39.2 °F 87% - 10.0 mi East 10.4 mph - N/A   Overcast
8:36 AM 42.8 °F 37.5 °F 39.2 °F 87% - 10.0 mi East 9.2 mph - N/A   Overcast
8:56 AM 42.8 °F 37.0 °F 39.2 °F 87% - 10.0 mi East 10.4 mph - N/A   Overcast
9:16 AM 42.8 °F 36.6 °F 39.2 °F 87% - 10.0 mi East 11.5 mph - N/A   Overcast
9:36 AM 42.8 °F 37.5 °F 39.2 °F 87% - 10.0 mi East 9.2 mph - N/A   Overcast
9:56 AM 42.8 °F 37.0 °F 39.2 °F 87% - 10.0 mi East 10.4 mph - N/A   Overcast
10:16 AM 42.8 °F 37.5 °F 39.2 °F 87% - 10.0 mi East 9.2 mph - N/A   Overcast
10:36 AM 42.8 °F 37.5 °F 39.2 °F 87% - 10.0 mi East 9.2 mph - N/A   Overcast
10:56 AM 42.8 °F 37.5 °F 39.2 °F 87% - 10.0 mi East 9.2 mph - N/A   Overcast
11:16 AM 42.8 °F 38.0 °F 39.2 °F 87% - 10.0 mi East 8.1 mph - N/A   Overcast
11:36 AM 42.8 °F 38.6 °F 39.2 °F 87% - 10.0 mi East 6.9 mph - N/A   Overcast
11:56 AM 42.8 °F 39.3 °F 39.2 °F 87% - 10.0 mi East 5.8 mph - N/A   Overcast
12:16 PM 42.8 °F 39.3 °F 39.2 °F 87% - 10.0 mi ESE 5.8 mph - N/A   Overcast
12:36 PM 42.8 °F 39.3 °F 39.2 °F 87% - 10.0 mi ESE 5.8 mph - N/A   Overcast
3:56 PM 42.8 °F 38.0 °F 39.2 °F 87% 29.35 in 10.0 mi ESE 8.1 mph - N/A   Overcast
4:16 PM 42.8 °F 38.0 °F 39.2 °F 87% 29.35 in 10.0 mi ESE 8.1 mph - N/A   Overcast
4:36 PM 42.8 °F 38.6 °F 39.2 °F 87% 29.35 in 10.0 mi ESE 6.9 mph - N/A   Overcast
4:56 PM 42.8 °F 38.6 °F 39.2 °F 87% 29.35 in 10.0 mi ESE 6.9 mph - N/A   Overcast
5:16 PM 42.8 °F 39.3 °F 39.2 °F 87% 29.35 in 10.0 mi SE 5.8 mph - N/A   Overcast
5:36 PM 42.8 °F 38.6 °F 39.2 °F 87% 29.35 in 10.0 mi SSE 6.9 mph - N/A   Overcast
5:56 PM 41.0 °F 36.4 °F 37.4 °F 87% 29.35 in 10.0 mi SE 6.9 mph - N/A   Overcast
6:16 PM 41.0 °F 36.4 °F 37.4 °F 87% 29.36 in 10.0 mi SE 6.9 mph - N/A   Mostly Cloudy
6:36 PM 41.0 °F 37.1 °F 37.4 °F 87% 29.36 in 10.0 mi SSE 5.8 mph - N/A   Overcast
6:56 PM 41.0 °F 39.0 °F 37.4 °F 87% 29.36 in 10.0 mi SSW 3.5 mph - N/A   Overcast
7:16 PM 41.0 °F 39.0 °F 37.4 °F 87% 29.36 in 10.0 mi SSW 3.5 mph - N/A   Overcast
7:36 PM 41.0 °F 38.0 °F 37.4 °F 87% 29.36 in 10.0 mi South 4.6 mph - N/A   Overcast
7:56 PM 41.0 °F 38.0 °F 37.4 °F 87% 29.37 in 10.0 mi SSE 4.6 mph - N/A   Overcast
8:16 PM 41.0 °F - 37.4 °F 87% 29.37 in 10.0 mi Calm Calm - N/A   Overcast
8:36 PM 41.0 °F 39.0 °F 37.4 °F 87% 29.37 in 10.0 mi SE 3.5 mph - N/A   Overcast
8:56 PM 39.2 °F 35.0 °F 37.4 °F 93% 29.37 in 10.0 mi ESE 5.8 mph - N/A   Overcast
9:16 PM 39.2 °F 35.9 °F 37.4 °F 93% 29.37 in 10.0 mi SSE 4.6 mph - N/A   Overcast
9:36 PM 39.2 °F 37.0 °F 37.4 °F 93% 29.38 in 10.0 mi SSE 3.5 mph - N/A   Overcast
9:56 PM 39.2 °F 37.0 °F 37.4 °F 93% 29.38 in 10.0 mi SE 3.5 mph - N/A   Overcast
10:16 PM 39.2 °F 35.9 °F 37.4 °F 93% 29.38 in 10.0 mi SSE 4.6 mph - N/A   Overcast
10:36 PM 39.2 °F 35.0 °F 37.4 °F 93% 29.38 in 10.0 mi SSE 5.8 mph - N/A   Overcast
10:56 PM 39.2 °F 37.0 °F 37.4 °F 93% 29.38 in 10.0 mi SSE 3.5 mph - N/A   Overcast
11:16 PM 39.2 °F - 37.4 °F 93% 29.39 in 10.0 mi Calm Calm - N/A   Overcast
11:36 PM 39.2 °F 33.0 °F 37.4 °F 93% 29.40 in 10.0 mi South 9.2 mph - N/A   Overcast
11:56 PM 39.2 °F 32.5 °F 37.4 °F 93% 29.40 in 10.0 mi South 10.4 mph - N/A   Overcast